Showing default

SKYBEE-A01, 62671

Orbit data source: Space-Track

SKYBEE-A01, 62671 is a payload satellite owned by ConstellR (DE) in SSO that was launched on Tue, 14 Jan 2025 UTC via an FALCON 9 launch vehicle from the Air Force Western Test Range (AFWTR). Payload-class satellites include a variety of spacecraft equipped with specific instruments for various scientific and technological missions. These include communications satellites like Starlink; space stations such as the ISS; scientific satellites like the Hubble; Earth observation satellites from companies like Planet Labs, Umbra, and HawkEye 360; GPS; miniature CubeSats for education and research; and military/defense satellites.

Loading next visibility...
Identifier
62671, 2025-009BQ
Orbit
SSO
Last TLE update
11 hours ago
Origin
Manufacturer
NanoAvionics
Mission
Operational Commercial Imaging
Bus & Motor
CUBESAT 16U MP42, Unknown motor
Mass
110 kg wet, 110 kg dry
Launch date (UTC)
2025-01-14 (6 months ago)
Launch vehicle
FALCON 9
Launch site
Air Force Western Test Range (AFWTR)
Object type
Payload
Rocket body
Debris
Shape & HBR
Box + 2 Pan, 1 m
Radar Cross Section
0.146 m², Medium (>0.1 m² and < 1m²)

Expand to show TLE details & history

TLE from 11 hours ago
0 SKYBEE-A01
1 62671U 25009BQ  25188.87947520  .00001853  00000-0  92971-4 0  9993
2 62671  97.4306 268.4970 0007187  96.6730 263.5323 15.18536838 84041
Epoch: 2025-07-07T21:06Z
TLE epoch observation values (Epoch: 2025-07-07T21:06:26.657Z)
Latitude
0.00004°
Longitude
25.80344°
Altitude
513.911 km
Speed
7.606 km/s
True Right ascension
17h 53m 59s
True Declination
0° 00' 00"
Sunlit
Object was in full shadow at epoch
Visualization orbit readout
Latitude
50.34123°
Longitude
17.26454°
Altitude
514.8 km
Speed
7.613 km/s
Apparent Right ascension
12h 27m 23s
Apparent Declination
17° 48' 59"
Sunlit
Object is in daylight
Visualization observer readout
Local Sidereal Time
20:29:44
Azimuth
303.647° NW
Elevation
-10.091°
Doppler factor
1
Orbital elements
Apogee altitude
512.179 km
Perigee altitude
502.282 km
Semi-major axis
6,885.368 km
Eccentricity
0.00072
Inclination
97.4306°
RAAN
268.497°
Arg. of periapsis
96.673°
True anomaly
Unknown
Mean anomaly
263.5323°
Eccentric anomaly
Unknown
Mean motion
3.79885 °/min
Orbital period
94.77 mins
BSTAR
0.000092971
Loading maneuver chart data...
Loading SW <> Apogee altitude chart data...
Loading historical data...
Loading historical data...
Loading historical data...
Loading historical data...
Loading historical data...
Loading historical data...
Loading historical data...

SKYBEE-A01 Visibility forecast

Observer location: undefined°, undefined°

Span
Click to sort rows by Start time (UTC) header in descending order
Start Az.
Max El. time (UTC)
Max El. Az.
Max El.
End time (UTC)
End Az.
6 mins2025-07-08 18:14:01.290Z10.655° NNE2025-07-08 18:17:01.290Z207.736° SW43.915°2025-07-08 18:20:01.290Z194.62° SSW
5 mins2025-07-09 04:53:01.290Z128.681° SE2025-07-09 04:55:01.290Z79.394° E29.824°2025-07-09 04:58:01.290Z10.117° NNE
|